DW6345 Murcia ES current weather conditions

sailwx.info

Wind from 135 at 0 knots gusting 1

Air temperature 22.8° C
Dewpoint 18.1° C

Last reported at 2016-Jul-01 03:44 UTC.
Time now 2016-Jul-01 04:37 UTC

Location: N 37°60' W 001°06'.
View on Google Maps.

See reports from other nearby stations

  
Tides and Currents Weather Stations Pressure Air Temp Water Temp Dewpoint Dewpoint Depression Visibility Wind Speed Wind Dir Waves Ship Positions
date/time (UTC)wind fromknots sea level pressurealtimeterstation pressurevisibilityair tempwater tempwave heightnotes
2016-Jul-01 03:44 135 0 gusting 1 22.8
2016-Jul-01 03:39 135 22.8
2016-Jul-01 03:34 135 22.8
2016-Jul-01 03:29 131 22.8
2016-Jul-01 03:24 090 22.8
2016-Jul-01 03:19 090 0 gusting 1 22.8
2016-Jul-01 03:14 090 22.8
2016-Jul-01 03:09 045 22.8
2016-Jul-01 03:04 248 22.8
2016-Jul-01 02:59 086 22.8
2016-Jul-01 02:54 320 22.8
2016-Jul-01 02:49 045 22.8
2016-Jul-01 02:44 045 22.8
2016-Jul-01 02:39 049 22.8
2016-Jul-01 02:34 087 0 gusting 1 22.8
2016-Jul-01 02:29 045 0 gusting 1 22.8
2016-Jul-01 02:24 045 22.8
2016-Jul-01 02:19 045 0 gusting 1 22.8
2016-Jul-01 02:14 045 0 gusting 2 22.8
2016-Jul-01 02:09 270 0 gusting 2 22.8
2016-Jul-01 02:04 270 22.8
2016-Jul-01 01:59 045 0 gusting 2 22.8
2016-Jul-01 01:54 045 22.8
2016-Jul-01 01:49 045 0 gusting 2 22.8
2016-Jul-01 01:44 090 1 gusting 2 22.8
2016-Jul-01 01:39 081 0 gusting 2 22.8
2016-Jul-01 01:34 095 0 gusting 5 22.8
2016-Jul-01 01:29 051 2 gusting 5 22.8
2016-Jul-01 01:24 085 2 gusting 6 22.8
2016-Jul-01 01:19 090 2 gusting 5 23.3
2016-Jul-01 01:14 045 2 gusting 5 23.3
2016-Jul-01 01:09 050 2 gusting 5 23.3
2016-Jul-01 01:04 090 2 gusting 6 23.3
2016-Jul-01 00:59 090 2 gusting 6 23.3
2016-Jul-01 00:54 090 2 gusting 5 23.3
2016-Jul-01 00:49 090 2 gusting 6 23.3
2016-Jul-01 00:44 045 2 gusting 5 23.3
2016-Jul-01 00:39 096 2 gusting 6 23.3
2016-Jul-01 00:34 086 2 gusting 6 23.3
2016-Jul-01 00:29 087 2 gusting 7 23.3
2016-Jul-01 00:24 045 5 gusting 6 23.3
2016-Jul-01 00:19 096 2 gusting 6 23.3
2016-Jul-01 00:14 045 4 gusting 6 23.9
2016-Jul-01 00:09 049 2 gusting 6 23.9
2016-Jul-01 00:04 090 2 gusting 6 23.9
2016-Jun-30 23:59 085 3 gusting 6 23.9
2016-Jun-30 23:54 048 2 gusting 6 23.9
2016-Jun-30 23:49 087 2 gusting 6 23.9
2016-Jun-30 23:44 045 2 gusting 6 23.9
2016-Jun-30 23:39 274 2 gusting 6 24.4
2016-Jun-30 23:34 086 2 gusting 6 23.9
2016-Jun-30 23:29 051 4 gusting 6 24.4
2016-Jun-30 23:24 090 3 gusting 6 24.4
2016-Jun-30 23:19 047 2 gusting 6 24.4
2016-Jun-30 23:14 090 1 gusting 5 24.4
2016-Jun-30 23:09 090 1 gusting 5 24.4
2016-Jun-30 23:04 090 1 gusting 5 24.4
2016-Jun-30 22:59 087 3 gusting 6 24.4
2016-Jun-30 22:54 088 3 gusting 6 24.4
2016-Jun-30 22:49 090 5 gusting 7 24.4
2016-Jun-30 22:44 045 4 gusting 7 24.4
2016-Jun-30 22:39 050 2 gusting 5 24.4
2016-Jun-30 22:34 084 2 gusting 4 25.0
2016-Jun-30 22:29 090 2 gusting 6 25.0
2016-Jun-30 22:24 094 4 gusting 6 25.0
2016-Jun-30 22:19 086 2 gusting 6 25.0
2016-Jun-30 22:14 126 3 gusting 7 25.0
2016-Jun-30 22:09 045 4 gusting 6 25.0
2016-Jun-30 22:04 090 2 gusting 6 25.6
2016-Jun-30 21:59 084 4 gusting 6 25.6
2016-Jun-30 21:54 090 4 gusting 6 25.6
2016-Jun-30 21:49 045 2 gusting 6 25.6
2016-Jun-30 21:44 045 4 gusting 7 25.6
2016-Jun-30 21:39 045 3 gusting 6 25.6
2016-Jun-30 21:34 049 4 gusting 8 25.6
2016-Jun-30 21:29 084 3 gusting 6 26.1
2016-Jun-30 21:24 090 5 gusting 7 26.1
2016-Jun-30 21:19 090 3 gusting 7 26.1
2016-Jun-30 21:14 085 5 gusting 8 26.1
2016-Jun-30 21:09 045 5 gusting 8 26.7
2016-Jun-30 21:04 090 2 gusting 6 26.7
2016-Jun-30 20:59 172 4 gusting 6 26.7
2016-Jun-30 20:54 088 3 gusting 6 26.7
2016-Jun-30 20:49 090 4 gusting 7 27.2
2016-Jun-30 20:44 048 4 gusting 7 27.2
2016-Jun-30 20:39 045 4 gusting 6 27.2
2016-Jun-30 20:34 090 5 gusting 8 27.8
2016-Jun-30 20:29 090 6 gusting 10 27.8
2016-Jun-30 20:24 048 6 gusting 10 28.3
2016-Jun-30 20:19 045 5 gusting 8 28.3
2016-Jun-30 20:14 086 5 gusting 8 28.9
2016-Jun-30 20:09 045 4 gusting 8 29.4
2016-Jun-30 20:04 049 5 gusting 8 29.4
2016-Jun-30 19:59 045 4 gusting 6 30.0
2016-Jun-30 19:54 090 4 gusting 6 30.0
2016-Jun-30 19:49 090 2 gusting 8 30.0
2016-Jun-30 19:44 090 4 gusting 6 30.6
2016-Jun-30 19:39 045 2 gusting 5 30.6
2016-Jun-30 19:34 102 0 gusting 6 30.6
2016-Jun-30 19:29 138 2 gusting 6 30.6
2016-Jun-30 19:24 177 4 gusting 6 31.1
2016-Jun-30 19:19 177 2 gusting 5 31.1
2016-Jun-30 19:14 138 2 gusting 6 31.1
2016-Jun-30 19:09 137 3 gusting 6 31.7
2016-Jun-30 19:04 135 2 gusting 6 31.7
2016-Jun-30 18:59 135 3 gusting 6 31.7
2016-Jun-30 18:54 135 4 gusting 8 31.7
2016-Jun-30 18:49 180 6 gusting 11 31.7
2016-Jun-30 18:44 155 5 gusting 8 31.7
2016-Jun-30 18:39 095 3 gusting 6 31.7
2016-Jun-30 18:34 130 2 gusting 7 31.7
2016-Jun-30 18:29 138 5 gusting 6 31.7
2016-Jun-30 18:24 140 4 gusting 7 31.7
2016-Jun-30 18:19 180 4 gusting 6 31.7
2016-Jun-30 18:14 141 3 gusting 6 31.7
2016-Jun-30 18:09 138 4 gusting 8 31.7
2016-Jun-30 18:04 180 5 gusting 8 32.2
2016-Jun-30 17:59 180 5 gusting 8 32.2
2016-Jun-30 17:54 177 4 gusting 10 32.2
2016-Jun-30 17:49 177 5 gusting 10 32.2
2016-Jun-30 17:44 244 2 gusting 7 32.8
2016-Jun-30 17:39 176 5 gusting 8 32.8
2016-Jun-30 17:34 180 5 gusting 7 32.8
2016-Jun-30 17:29 180 3 gusting 8 32.8
2016-Jun-30 17:24 180 4 gusting 8 32.8
2016-Jun-30 17:19 175 6 gusting 10 32.8
2016-Jun-30 17:14 180 5 gusting 10 33.3
2016-Jun-30 17:09 180 4 gusting 13 33.3
2016-Jun-30 17:04 180 4 gusting 8 33.3
2016-Jun-30 16:59 176 5 gusting 11 33.9
2016-Jun-30 16:54 185 5 gusting 10 33.9
2016-Jun-30 16:49 138 5 gusting 7 33.9
2016-Jun-30 16:44 176 2 gusting 8 34.4
2016-Jun-30 16:39 135 5 gusting 8 34.4
2016-Jun-30 16:34 145 3 gusting 6 34.4
2016-Jun-30 16:29 135 2 gusting 8 34.4
2016-Jun-30 16:24 243 5 gusting 11 34.4
2016-Jun-30 16:19 140 5 gusting 11 35.0
2016-Jun-30 16:14 136 7 gusting 13 35.0
2016-Jun-30 16:09 139 9 gusting 13 35.6
2016-Jun-30 16:04 180 5 gusting 12 35.6
2016-Jun-30 15:59 175 5 gusting 11 35.6
2016-Jun-30 15:54 176 4 gusting 8 35.6
2016-Jun-30 15:49 138 4 gusting 13 35.6
2016-Jun-30 15:44 180 5 gusting 8 35.6
2016-Jun-30 15:39 176 5 gusting 8 35.6
2016-Jun-30 15:34 180 5 gusting 11 35.0
2016-Jun-30 15:29 140 6 gusting 12 35.0
2016-Jun-30 15:24 176 7 gusting 13 34.4
2016-Jun-30 15:19 139 8 gusting 11 34.4
2016-Jun-30 15:14 180 6 gusting 12 34.4
2016-Jun-30 15:09 180 7 gusting 13 34.4
2016-Jun-30 15:04 180 7 gusting 12 34.4
2016-Jun-30 14:59 177 6 gusting 12 34.4
2016-Jun-30 14:54 180 7 gusting 13 34.4
2016-Jun-30 14:49 180 6 gusting 14 35.0
2016-Jun-30 14:44 241 5 gusting 11 35.0
2016-Jun-30 14:39 180 4 gusting 13 35.6
2016-Jun-30 14:34 139 7 gusting 17 35.6
2016-Jun-30 14:30 137 8 gusting 14 35.6
2016-Jun-30 14:19 180 6 gusting 11 35.6
2016-Jun-30 14:14 180 6 gusting 11 35.6
2016-Jun-30 14:09 178 3 gusting 12 35.6
2016-Jun-30 14:04 180 6 gusting 13 35.6
2016-Jun-30 13:59 180 6 gusting 11 35.6
2016-Jun-30 13:54 141 6 gusting 13 35.6
2016-Jun-30 13:49 240 6 gusting 13 35.0
2016-Jun-30 13:44 180 5 gusting 13 35.0
2016-Jun-30 13:39 175 9 gusting 14 35.0
2016-Jun-30 13:34 177 8 gusting 13 35.0
2016-Jun-30 13:29 114 5 gusting 12 35.0
2016-Jun-30 13:24 180 7 gusting 13 34.4
2016-Jun-30 13:19 186 8 gusting 13 35.0
2016-Jun-30 13:14 176 8 gusting 14 35.0
2016-Jun-30 13:09 177 8 gusting 14 34.4
2016-Jun-30 13:04 096 6 gusting 13 34.4
2016-Jun-30 12:59 176 6 gusting 13 34.4
2016-Jun-30 12:54 180 7 gusting 17 34.4
2016-Jun-30 12:49 135 9 gusting 17 34.4
2016-Jun-30 12:44 180 7 gusting 19 34.4
2016-Jun-30 12:39 138 10 gusting 14 34.4
2016-Jun-30 12:34 180 8 gusting 14 35.0
2016-Jun-30 12:29 135 6 gusting 13 35.0
2016-Jun-30 12:24 177 3 gusting 8 35.0
2016-Jun-30 12:19 135 5 gusting 11 35.0
2016-Jun-30 12:14 177 7 gusting 13 35.0
2016-Jun-30 12:09 177 6 gusting 11 35.0
2016-Jun-30 12:04 160 6 gusting 11 35.0
2016-Jun-30 11:59 174 5 gusting 14 34.4
2016-Jun-30 11:54 139 4 gusting 7 34.4
2016-Jun-30 11:49 090 2 gusting 10 33.9
2016-Jun-30 11:44 090 5 gusting 8 33.9
2016-Jun-30 11:39 131 5 gusting 8 33.3
2016-Jun-30 11:34 132 4 gusting 6 33.3
2016-Jun-30 11:29 051 4 gusting 8 33.3
2016-Jun-30 11:24 090 4 gusting 8 33.3
2016-Jun-30 11:19 090 4 gusting 6 33.9
2016-Jun-30 11:14 270 0 gusting 5 33.9
2016-Jun-30 11:09 093 2 gusting 6 33.9
2016-Jun-30 11:04 090 2 gusting 5 33.3
2016-Jun-30 10:59 093 1 gusting 5 33.3
2016-Jun-30 10:54 132 0 gusting 6 32.8
2016-Jun-30 10:49 180 2 gusting 5 32.2
2016-Jun-30 10:44 328 1 gusting 6 32.2
2016-Jun-30 10:39 045 0 gusting 5 31.7
2016-Jun-30 10:34 045 2 gusting 6 31.7
2016-Jun-30 10:29 050 1 gusting 4 31.7
2016-Jun-30 10:24 077 1 gusting 6 31.1
2016-Jun-30 10:19 045 1 gusting 5 30.6
2016-Jun-30 10:14 046 1 gusting 5 30.6
2016-Jun-30 10:09 045 1 gusting 6 30.6
2016-Jun-30 10:04 045 0 gusting 2 30.0
2016-Jun-30 09:59 135 1 gusting 6 30.0
2016-Jun-30 09:54 125 1 gusting 6 29.4
2016-Jun-30 09:49 090 2 gusting 6 29.4
2016-Jun-30 09:44 083 2 gusting 6 28.9
2016-Jun-30 09:39 090 2 gusting 6 28.3
2016-Jun-30 09:34 090 2 gusting 5 28.3
2016-Jun-30 09:29 084 2 gusting 4 28.3
2016-Jun-30 09:24 045 0 gusting 5 28.3
2016-Jun-30 09:19 133 1 gusting 5 28.3
2016-Jun-30 09:14 084 1 gusting 4 28.3
2016-Jun-30 09:09 090 0 gusting 2 28.3
2016-Jun-30 09:04 045 1 gusting 2 27.8
2016-Jun-30 08:59 045 0 gusting 2 27.8
2016-Jun-30 08:54 045 0 gusting 1 27.2
2016-Jun-30 08:49 270 0 gusting 1 27.2
2016-Jun-30 08:44 248 0 gusting 1 26.7
2016-Jun-30 08:39 312 0 gusting 2 26.7
2016-Jun-30 08:34 240 1 gusting 4 26.7
2016-Jun-30 08:29 239 1 gusting 2 26.7
2016-Jun-30 08:24 147 1 gusting 2 26.7
2016-Jun-30 08:19 135 0 gusting 2 26.1
2016-Jun-30 08:14 138 0 gusting 2 26.1
2016-Jun-30 08:09 135 25.6
2016-Jun-30 08:04 087 25.6
2016-Jun-30 07:59 038 1 gusting 4 25.6
2016-Jun-30 07:54 315 0 gusting 5 25.6
2016-Jun-30 07:49 315 25.6
2016-Jun-30 07:44 090 25.6
2016-Jun-30 07:39 180 25.6
2016-Jun-30 07:34 045 0 gusting 2 25.6
2016-Jun-30 07:29 087 0 gusting 1 25.6
2016-Jun-30 07:24 270 0 gusting 1 25.6
2016-Jun-30 07:19 321 0 gusting 2 25.6
2016-Jun-30 07:14 050 0 gusting 1 25.6
2016-Jun-30 07:09 090 0 gusting 2 25.6
2016-Jun-30 07:04 045 0 gusting 2 25.6
2016-Jun-30 06:59 135 0 gusting 0 25.6
2016-Jun-30 06:54 090 0 gusting 0 25.6
2016-Jun-30 06:49 090 0 gusting 0 25.0
2016-Jun-30 06:44 096 25.0
2016-Jun-30 06:39 045 0 gusting 2 24.4
2016-Jun-30 06:34 088 0 gusting 2 24.4
2016-Jun-30 06:29 045 0 gusting 2 23.9
2016-Jun-30 06:24 048 0 gusting 2 23.3
2016-Jun-30 06:19 090 0 gusting 1 23.3
2016-Jun-30 06:14 049 22.8
2016-Jun-30 06:09 177 22.8
2016-Jun-30 06:04 045 0 gusting 2 22.2
2016-Jun-30 05:59 090 0 gusting 1 22.2
2016-Jun-30 05:54 045 0 gusting 2 22.2
2016-Jun-30 05:49 129 22.2
2016-Jun-30 05:44 048 2 gusting 2 22.2
2016-Jun-30 05:39 045 1 gusting 2 22.2
2016-Jun-30 05:34 087 1 gusting 4 22.2
2016-Jun-30 05:29 048 0 gusting 2 22.2
2016-Jun-30 05:24 051 0 gusting 2 22.2
2016-Jun-30 05:19 090 1 gusting 2 22.2
2016-Jun-30 05:14 047 0 gusting 2 22.2
2016-Jun-30 05:09 042 1 gusting 2 22.2
2016-Jun-30 05:04 047 0 gusting 1 22.2
2016-Jun-30 04:59 045 22.2
2016-Jun-30 04:54 039 0 gusting 2 21.7
2016-Jun-30 04:49 049 21.7
2016-Jun-30 04:44 045 0 gusting 2 21.7
2016-Jun-30 04:39 089 1 gusting 2 21.7
2016-Jun-30 04:34 090 0 gusting 2 21.7
2016-Jun-30 04:29 090 2 gusting 4 21.7
2016-Jun-30 04:24 090 0 gusting 2 21.7
2016-Jun-30 04:19 090 2 gusting 4 21.7
2016-Jun-30 04:14 090 1 gusting 2 21.7
2016-Jun-30 04:09 090 0 gusting 2 21.7
2016-Jun-30 04:04 090 0 gusting 2 21.7
2016-Jun-30 03:59 081 0 gusting 2 21.7
2016-Jun-30 03:54 135 0 gusting 2 21.7
2016-Jun-30 03:49 090 2 gusting 4 21.7
2016-Jun-30 03:44 090 0 gusting 4 21.7
2016-Jun-30 03:39 090 1 gusting 5 21.7
2016-Jun-30 03:34 049 2 gusting 5 22.2
2016-Jun-30 03:29 045 3 gusting 5 22.2
2016-Jun-30 03:24 085 2 gusting 4 22.2
2016-Jun-30 03:19 086 0 gusting 2 22.2
2016-Jun-30 03:14 045 0 gusting 2 22.2
2016-Jun-30 03:09 045 1 gusting 2 22.2
2016-Jun-30 03:04 090 0 gusting 1 22.2
2016-Jun-30 02:59 083 0 gusting 0 22.2
2016-Jun-30 02:54 049 22.2
2016-Jun-30 02:49 176 0 gusting 2 22.2
2016-Jun-30 02:44 135 0 gusting 2 22.8
2016-Jun-30 02:39 092 1 gusting 2 22.8
2016-Jun-30 02:34 136 1 gusting 2 22.8
2016-Jun-30 02:29 128 0 gusting 2 22.8
2016-Jun-30 02:24 090 0 gusting 2 22.8
2016-Jun-30 02:19 048 0 gusting 2 22.8
2016-Jun-30 02:14 090 0 gusting 1 22.8
2016-Jun-30 02:09 090 0 gusting 1 22.8
2016-Jun-30 02:04 090 0 gusting 0 22.8
2016-Jun-30 01:59 090 0 gusting 1 22.8
2016-Jun-30 01:54 045 0 gusting 0 22.8
2016-Jun-30 01:49 180 22.8
2016-Jun-30 01:44 045 0 gusting 1 22.8
2016-Jun-30 01:39 045 22.8
2016-Jun-30 01:34 048 0 gusting 2 22.8
2016-Jun-30 01:29 090 0 gusting 2 22.8
2016-Jun-30 01:24 045 1 gusting 2 22.8
2016-Jun-30 01:19 090 0 gusting 4 22.8
2016-Jun-30 01:14 045 0 gusting 2 22.8
2016-Jun-30 01:09 048 0 gusting 2 22.8
2016-Jun-30 01:04 045 0 gusting 2 23.3
2016-Jun-30 00:59 045 0 gusting 2 23.3
2016-Jun-30 00:54 047 0 gusting 2 23.3
2016-Jun-30 00:49 083 0 gusting 2 23.3
2016-Jun-30 00:44 090 0 gusting 2 23.3
2016-Jun-30 00:39 131 0 gusting 4 23.3
2016-Jun-30 00:34 085 1 gusting 2 23.3
2016-Jun-30 00:29 090 2 gusting 4 23.9
2016-Jun-30 00:24 045 0 gusting 2 23.9
2016-Jun-30 00:19 090 1 gusting 4 23.9
2016-Jun-30 00:14 087 1 gusting 4 23.9
2016-Jun-30 00:09 088 0 gusting 5 23.9
2016-Jun-30 00:04 045 2 gusting 5 23.9
2016-Jun-29 23:59 045 2 gusting 5 23.9
2016-Jun-29 23:54 090 0 gusting 2 24.4
2016-Jun-29 23:49 055 1 gusting 4 24.4
2016-Jun-29 23:44 045 1 gusting 5 24.4
2016-Jun-29 23:39 045 1 gusting 5 24.4
2016-Jun-29 23:34 048 0 gusting 4 24.4
2016-Jun-29 23:29 081 0 gusting 4 24.4
2016-Jun-29 23:24 049 0 gusting 2 24.4
2016-Jun-29 23:19 045 1 gusting 5 24.4
2016-Jun-29 23:14 048 2 gusting 4 25.0
2016-Jun-29 23:09 045 0 gusting 5 25.0
2016-Jun-29 23:04 090 2 gusting 5 25.0
2016-Jun-29 22:59 090 2 gusting 4 25.0
2016-Jun-29 22:54 090 2 gusting 6 25.0
2016-Jun-29 22:49 090 2 gusting 6 25.6
2016-Jun-29 22:44 131 1 gusting 5 25.6
2016-Jun-29 22:39 090 2 gusting 5 25.6
2016-Jun-29 22:34 045 2 gusting 6 25.6
2016-Jun-29 22:29 130 3 gusting 6 25.6
2016-Jun-29 22:24 048 2 gusting 5 25.6
2016-Jun-29 22:19 090 3 gusting 5 25.6
2016-Jun-29 22:14 090 2 gusting 5 25.6
2016-Jun-29 22:09 048 2 gusting 5 25.6
2016-Jun-29 22:04 045 1 gusting 4 25.6
2016-Jun-29 21:59 045 1 gusting 5 25.6
2016-Jun-29 21:54 086 0 gusting 4 26.1
2016-Jun-29 21:49 045 1 gusting 6 26.1
2016-Jun-29 21:44 090 2 gusting 6 26.1
2016-Jun-29 21:39 130 1 gusting 4 26.1
2016-Jun-29 21:34 090 0 gusting 2 26.7
2016-Jun-29 21:29 315 1 gusting 2 26.7
2016-Jun-29 21:24 087 1 gusting 2 26.7
2016-Jun-29 21:19 045 0 gusting 2 26.7
2016-Jun-29 21:14 038 1 gusting 4 26.7
2016-Jun-29 21:09 090 1 gusting 4 27.2
2016-Jun-29 21:04 135 1 gusting 4 27.2
2016-Jun-29 20:59 135 1 gusting 2 27.2
2016-Jun-29 20:54 129 2 gusting 4 27.2
2016-Jun-29 20:49 090 1 gusting 4 27.2
2016-Jun-29 20:44 131 1 gusting 8 27.2
2016-Jun-29 20:39 135 1 gusting 6 27.2
2016-Jun-29 20:34 094 2 gusting 6 27.2
2016-Jun-29 20:29 048 1 gusting 5 27.2
2016-Jun-29 20:24 094 2 gusting 7 27.8
2016-Jun-29 20:19 094 4 gusting 7 27.8
2016-Jun-29 20:14 232 2 gusting 5 27.8
2016-Jun-29 20:09 115 1 gusting 5 27.8
2016-Jun-29 20:04 090 2 gusting 5 27.8
2016-Jun-29 19:59 090 2 gusting 5 27.8
2016-Jun-29 19:54 090 1 gusting 5 28.3
2016-Jun-29 19:49 088 1 gusting 2 28.3
2016-Jun-29 19:44 090 1 gusting 4 28.3
2016-Jun-29 19:39 099 0 gusting 4 28.3
2016-Jun-29 19:34 086 0 gusting 2 28.3
2016-Jun-29 19:29 045 0 gusting 2 28.9
2016-Jun-29 19:24 135 1 gusting 4 28.9
2016-Jun-29 19:19 135 1 gusting 5 28.9
2016-Jun-29 19:14 050 2 gusting 5 28.9
2016-Jun-29 19:09 178 2 gusting 6 29.4
2016-Jun-29 19:04 135 5 gusting 6 29.4
2016-Jun-29 18:59 138 2 gusting 6 29.4
2016-Jun-29 18:54 094 2 gusting 8 29.4
2016-Jun-29 18:49 090 5 gusting 8 29.4
2016-Jun-29 18:44 090 5 gusting 10 29.4
2016-Jun-29 18:39 095 3 gusting 7 29.4
2016-Jun-29 18:34 049 0 gusting 5 29.4
2016-Jun-29 18:29 129 2 gusting 5 30.0
2016-Jun-29 18:24 097 1 gusting 5 30.0
2016-Jun-29 18:19 178 2 gusting 5 29.4
2016-Jun-29 18:14 087 2 gusting 6 29.4
2016-Jun-29 18:09 086 1 gusting 6 29.4
2016-Jun-29 18:04 094 2 gusting 6 29.4
2016-Jun-29 17:59 090 4 gusting 8 30.0
2016-Jun-29 17:54 090 5 gusting 8 30.0
2016-Jun-29 17:49 092 3 gusting 8 30.0
2016-Jun-29 17:44 093 4 gusting 8 30.0
2016-Jun-29 17:39 092 5 gusting 11 30.0
2016-Jun-29 17:34 088 4 gusting 12 30.0
2016-Jun-29 17:29 090 7 gusting 12 30.6
2016-Jun-29 17:24 090 6 gusting 10 30.6
2016-Jun-29 17:19 086 6 gusting 11 30.6
2016-Jun-29 17:14 051 6 gusting 11 30.6
2016-Jun-29 17:09 090 6 gusting 11 30.6
2016-Jun-29 17:04 090 6 gusting 12 30.6
2016-Jun-29 16:59 087 6 gusting 12 31.1
2016-Jun-29 16:54 090 6 gusting 12 31.1
2016-Jun-29 16:49 090 5 gusting 11 31.1
2016-Jun-29 16:44 092 5 gusting 11 31.1
2016-Jun-29 16:39 109 7 gusting 13 31.7
2016-Jun-29 16:34 129 8 gusting 13 31.7
2016-Jun-29 16:29 090 6 gusting 14 31.7
2016-Jun-29 16:24 049 8 gusting 14 31.7
2016-Jun-29 16:19 050 7 gusting 13 31.7
2016-Jun-29 16:14 130 8 gusting 13 31.7
2016-Jun-29 16:09 048 7 gusting 13 31.7
2016-Jun-29 16:04 090 6 gusting 13 31.7
2016-Jun-29 15:59 090 9 gusting 13 31.7
2016-Jun-29 15:54 086 8 gusting 13 31.7
2016-Jun-29 15:49 049 8 gusting 13 32.2
2016-Jun-29 15:44 135 6 gusting 14 31.7
2016-Jun-29 15:39 090 8 gusting 14 32.2
2016-Jun-29 15:34 128 7 gusting 12 31.7
2016-Jun-29 15:29 048 6 gusting 14 31.7
2016-Jun-29 15:24 094 5 gusting 13 32.2
2016-Jun-29 15:19 090 8 gusting 13 32.2
2016-Jun-29 15:14 090 7 gusting 13 32.2
2016-Jun-29 15:09 090 6 gusting 13 32.2
2016-Jun-29 15:04 090 8 gusting 13 32.8
2016-Jun-29 14:59 083 6 gusting 13 32.8
2016-Jun-29 14:54 132 4 gusting 11 32.2
2016-Jun-29 14:49 135 7 gusting 13 32.2
2016-Jun-29 14:44 095 5 gusting 14 32.8
2016-Jun-29 14:39 055 7 gusting 14 32.8
2016-Jun-29 14:34 097 5 gusting 14 32.8
2016-Jun-29 14:29 090 8 gusting 14 32.8
2016-Jun-29 14:24 129 5 gusting 12 32.8
2016-Jun-29 14:19 131 7 gusting 13 32.8
2016-Jun-29 14:14 141 7 gusting 14 32.8
2016-Jun-29 14:09 090 8 gusting 15 32.8
2016-Jun-29 14:04 094 6 gusting 13 32.8
2016-Jun-29 13:59 090 8 gusting 17 32.8
2016-Jun-29 13:54 093 7 gusting 14 32.8
2016-Jun-29 13:49 050 7 gusting 14 32.8
2016-Jun-29 13:44 051 6 gusting 10 32.8
2016-Jun-29 13:39 085 6 gusting 14 32.2
2016-Jun-29 13:34 130 6 gusting 17 32.2
2016-Jun-29 13:29 090 8 gusting 14 32.2
2016-Jun-29 13:24 295 10 gusting 18 32.2
2016-Jun-29 13:19 172 5 gusting 13 32.2
2016-Jun-29 13:14 049 7 gusting 17 32.8
2016-Jun-29 13:09 090 6 gusting 13 32.8
2016-Jun-29 13:04 131 5 gusting 13 32.8
2016-Jun-29 12:59 092 5 gusting 13 32.8
2016-Jun-29 12:54 114 6 gusting 15 32.8
2016-Jun-29 12:49 059 5 gusting 13 32.2
2016-Jun-29 12:44 174 8 gusting 14 32.2
2016-Jun-29 12:39 095 7 gusting 13 32.2
2016-Jun-29 12:34 131 7 gusting 13 32.2
2016-Jun-29 12:29 130 10 gusting 17 32.2
2016-Jun-29 12:24 090 5 gusting 13 32.2
2016-Jun-29 12:19 095 6 gusting 11 32.2
2016-Jun-29 12:14 090 4 gusting 12 31.7
2016-Jun-29 12:09 090 6 gusting 14 31.7
2016-Jun-29 12:04 090 6 gusting 13 31.7
2016-Jun-29 11:59 090 5 gusting 11 31.7
2016-Jun-29 11:54 082 4 gusting 14 31.7
2016-Jun-29 11:49 093 6 gusting 12 31.7
2016-Jun-29 11:44 132 5 gusting 13 31.7
2016-Jun-29 11:39 050 3 gusting 8 31.1
2016-Jun-29 11:34 090 7 gusting 13 31.1
2016-Jun-29 11:29 048 2 gusting 7 31.1
2016-Jun-29 11:24 081 5 gusting 12 30.6
2016-Jun-29 11:19 086 3 gusting 12 30.6
2016-Jun-29 11:14 048 5 gusting 10 30.6
2016-Jun-29 11:09 050 6 gusting 11 30.6
2016-Jun-29 11:04 148 2 gusting 8 30.6
2016-Jun-29 10:59 089 2 gusting 6 30.6
2016-Jun-29 10:54 090 4 gusting 8 30.6
2016-Jun-29 10:49 094 5 gusting 8 30.6
2016-Jun-29 10:44 135 2 gusting 8 30.0
2016-Jun-29 10:39 134 4 gusting 8 30.0
2016-Jun-29 10:34 051 2 gusting 7 30.0
2016-Jun-29 10:29 090 2 gusting 6 29.4
2016-Jun-29 10:24 045 3 gusting 6 29.4
2016-Jun-29 10:19 326 1 gusting 8 29.4
2016-Jun-29 10:14 048 4 gusting 8 29.4
2016-Jun-29 10:09 092 4 gusting 6 29.4
2016-Jun-29 10:04 090 2 gusting 6 28.9
2016-Jun-29 09:59 090 4 gusting 6 28.9
2016-Jun-29 09:54 090 4 gusting 7 28.9
2016-Jun-29 09:49 086 0 gusting 5 28.9
2016-Jun-29 09:44 045 3 gusting 6 28.9
2016-Jun-29 09:39 274 2 gusting 8 28.3
2016-Jun-29 09:34 135 2 gusting 6 28.3
2016-Jun-29 09:29 090 2 gusting 7 27.8
2016-Jun-29 09:24 045 4 gusting 10 27.8
2016-Jun-29 09:19 171 0 gusting 7 27.2
2016-Jun-29 09:14 045 5 gusting 7 27.2
2016-Jun-29 09:09 054 2 gusting 8 27.2
2016-Jun-29 09:04 090 2 gusting 8 27.2
2016-Jun-29 08:59 051 6 gusting 13 27.2
2016-Jun-29 08:54 045 3 gusting 7 27.2
2016-Jun-29 08:49 183 1 gusting 11 26.7
2016-Jun-29 08:44 090 5 gusting 8 26.7
2016-Jun-29 08:39 087 5 gusting 8 26.7
2016-Jun-29 08:34 087 5 gusting 11 26.1
2016-Jun-29 08:29 090 6 gusting 11 26.1
2016-Jun-29 08:24 090 5 gusting 11 26.1
2016-Jun-29 08:19 090 6 gusting 11 26.1
2016-Jun-29 08:14 090 6 gusting 8 26.1
2016-Jun-29 08:09 088 2 gusting 6 26.1
2016-Jun-29 08:04 051 5 gusting 8 25.6
2016-Jun-29 07:59 051 5 gusting 8 25.6
2016-Jun-29 07:54 090 5 gusting 10 25.6
2016-Jun-29 07:49 045 5 gusting 10 25.6
2016-Jun-29 07:44 086 5 gusting 11 25.6
2016-Jun-29 07:39 090 6 gusting 11 25.6
2016-Jun-29 07:34 090 6 gusting 10 25.6
2016-Jun-29 07:29 088 4 gusting 8 25.6
2016-Jun-29 07:24 049 5 gusting 6 25.6
2016-Jun-29 07:19 090 1 gusting 4 25.6
2016-Jun-29 07:14 048 0 gusting 4 25.6
2016-Jun-29 07:09 094 0 gusting 4 25.0
2016-Jun-29 07:04 045 0 gusting 5 25.0
2016-Jun-29 06:59 135 2 gusting 4 24.4
2016-Jun-29 06:54 099 0 gusting 2 24.4
2016-Jun-29 06:49 135 0 gusting 1 23.9
2016-Jun-29 06:44 135 23.3
2016-Jun-29 06:39 135 0 gusting 2 22.8
2016-Jun-29 06:34 176 0 gusting 2 22.2
2016-Jun-29 06:29 144 0 gusting 2 22.2
2016-Jun-29 06:24 141 2 gusting 5 22.2
2016-Jun-29 06:19 180 0 gusting 5 21.7
2016-Jun-29 06:14 245 2 gusting 5 21.7
2016-Jun-29 06:09 180 0 gusting 0 21.1
2016-Jun-29 06:04 315 21.1
2016-Jun-29 05:59 090 0 gusting 2 21.1
2016-Jun-29 05:54 045 0 gusting 2 21.1
2016-Jun-29 05:49 045 0 gusting 2 20.6
2016-Jun-29 05:44 087 2 gusting 5 20.6
2016-Jun-29 05:39 049 2 gusting 5 21.1
2016-Jun-29 05:34 324 1 gusting 5 21.1
2016-Jun-29 05:29 050 2 gusting 5 21.1
2016-Jun-29 05:24 090 2 gusting 5 21.1
2016-Jun-29 05:19 131 2 gusting 5 21.1
2016-Jun-29 05:14 045 0 gusting 2 21.1
2016-Jun-29 05:09 045 0 gusting 1 21.1
2016-Jun-29 05:04 045 0 gusting 1 21.1
2016-Jun-29 04:59 315 0 gusting 1 21.1
2016-Jun-29 04:54 045 0 gusting 2 21.7
2016-Jun-29 04:49 283 0 gusting 2 21.7
2016-Jun-29 04:44 045 0 gusting 1 21.7
2016-Jun-29 04:39 045 0 gusting 1 21.7
2016-Jun-29 04:34 131 22.2
2016-Jun-29 04:29 315 0 gusting 1 22.2
2016-Jun-29 04:24 250 22.2
2016-Jun-29 04:19 270 22.2
2016-Jun-29 04:14 180 22.2
2016-Jun-29 04:09 259 0 gusting 1 22.2
2016-Jun-29 04:04 248 0 gusting 1 22.2